EW6103 Weather Reports


Display with metric or nautical units.
time (UTC)temp
F
wind
direction
speed
MPH
gust
MPH
rain 1hr
in
rain 24hr
in
rain mn
in
humidity
%
barometer
mb
20260507025008 53 270 2.0 4.0 0.00 0.11 0.00 96 1007.4
20260507024006 53 0 3.0 4.0 0.00 0.11 0.00 96 1007.2
20260507023008 53 0 4.0 5.0 0.00 0.11 0.00 96 1007.2
20260507021008 52 270 4.0 5.0 0.00 0.11 0.00 96 1007.3
20260507020014 52 0 4.0 6.0 0.00 0.11 0.00 96 1007.1
20260507015007 52 270 4.0 5.0 0.00 0.11 0.00 95 1006.9
20260507014008 52 0 3.0 4.0 0.00 0.11 0.00 95 1006.8
20260507013007 53 0 2.0 4.0 0.00 0.11 0.00 94 1006.6
20260507012012 54 0 1.0 2.0 0.00 0.11 0.00 93 1006.6
20260507011008 54 225 1.0 3.0 0.00 0.11 0.00 93 1006.4
20260507010013 54 225 0.0 2.0 0.00 0.11 0.00 92 1006.3
20260507004009 55 45 1.0 3.0 0.00 0.11 0.00 91 1005.8
20260507003009 55 90 0.0 2.0 0.00 0.11 0.00 91 1005.7
20260507002009 55 0 1.0 4.0 0.00 0.11 0.00 91 1005.7
20260507001009 55 0 2.0 4.0 0.00 0.11 0.00 90 1005.5
20260507000012 56 0 3.0 5.0 0.00 0.11 0.00 88 1005.8
20260506235008 56 0 3.0 6.0 0.00 0.11 0.00 88 1005.9
20260506234008 56 45 4.0 8.0 0.00 0.11 0.00 87 1005.4
20260506232008 56 0 3.0 6.0 0.00 0.11 0.00 88 1005.3
20260506230012 56 0 4.0 6.0 0.00 0.11 0.00 88 1005.6
20260506225009 57 270 4.0 7.0 0.00 0.11 0.00 87 1005.9
20260506223009 57 270 5.0 11.0 0.00 0.11 0.00 87 1005.8
20260506222008 57 0 8.0 11.0 0.00 0.11 0.00 85 1006.1
20260506221009 57 0 10.0 17.0 0.00 0.11 0.00 86 1005.8
20260506215006 56 90 3.0 7.0 0.00 0.11 0.11 86 1004.5
20260506214007 56 0 4.0 9.0 0.00 0.11 0.11 87 1004.5
20260506213010 55 180 3.0 6.0 0.00 0.11 0.11 90 1004.7
20260506212008 55 0 2.0 4.0 0.00 0.11 0.11 89 1004.7
20260506211008 55 270 6.0 10.0 0.00 0.11 0.11 89 1004.7
20260506210013 54 225 1.0 3.0 0.00 0.11 0.11 88 1004.3
20260506205008 54 135 1.0 3.0 0.00 0.11 0.11 89 1004.1
20260506203010 55 90 2.0 4.0 0.00 0.11 0.11 85 1003.8
20260506202008 56 0 3.0 5.0 0.00 0.11 0.11 85 1003.5
20260506201009 55 45 4.0 6.0 0.00 0.11 0.11 86 1003.8
20260506195008 56 45 3.0 6.0 0.00 0.11 0.11 88 1003.7
20260506194009 56 90 4.0 6.0 0.00 0.11 0.11 87 1003.7
20260506193008 56 45 4.0 8.0 0.00 0.11 0.11 87 1003.8
20260506192006 56 90 3.0 6.0 0.00 0.11 0.11 87 1003.8
20260506191010 56 45 4.0 6.0 0.00 0.11 0.11 87 1003.7
20260506185007 56 0 4.0 8.0 0.00 0.11 0.11 87 1003.8
20260506184009 56 45 4.0 7.0 0.00 0.11 0.11 88 1003.8
20260506183011 56 0 4.0 8.0 0.00 0.11 0.11 87 1004.1
20260506182009 56 45 4.0 9.0 0.00 0.11 0.11 85 1004.0
20260506181006 57 0 5.0 14.0 0.00 0.11 0.11 84 1003.9
20260506175007 59 270 6.0 12.0 0.00 0.11 0.11 83 1003.9
20260506174009 60 0 11.0 22.0 0.00 0.11 0.11 83 1004.2
20260506173010 59 225 1.0 3.0 0.01 0.11 0.11 90 1003.4
20260506171009 59 45 1.0 4.0 0.06 0.11 0.11 90 1002.7
20260506170013 60 0 3.0 5.0 0.06 0.11 0.11 90 1002.8
20260506165008 60 0 3.0 6.0 0.06 0.11 0.11 89 1003.1
20260506164009 60 0 2.0 4.0 0.07 0.11 0.11 89 1003.3
20260506163010 60 45 3.0 5.0 0.06 0.10 0.10 88 1003.3
20260506162008 60 45 2.0 4.0 0.06 0.10 0.10 90 1003.5
20260506161008 62 90 1.0 3.0 0.01 0.05 0.05 86 1003.8
20260506160012 63 90 2.0 4.0 0.01 0.05 0.05 86 1003.4
20260506155008 63 45 1.0 4.0 0.01 0.05 0.05 86 1003.6
20260506154006 64 45 2.0 4.0 0.00 0.04 0.04 82 1003.9
20260506153011 65 0 1.0 3.0 0.00 0.04 0.04 80 1003.7
20260506152005 65 0 1.0 3.0 0.00 0.04 0.04 75 1003.4
20260506151006 64 0 2.0 5.0 0.00 0.04 0.04 81 1003.6
20260506150011 64 0 2.0 4.0 0.00 0.04 0.04 82 1003.8
20260506145009 64 0 2.0 4.0 0.03 0.04 0.04 83 1004.0
20260506144008 65 45 1.0 2.0 0.04 0.04 0.04 81 1003.9
20260506143010 65 45 2.0 4.0 0.04 0.04 0.04 80 1004.0
20260506142008 67 45 1.0 4.0 0.04 0.04 0.04 75 1003.8
20260506141007 67 0 2.0 4.0 0.04 0.04 0.04 72 1003.7
20260506140014 65 0 1.0 3.0 0.04 0.04 0.04 77 1004.1
20260506135008 66 270 4.0 8.0 0.01 0.01 0.01 70 1004.7
20260506134008 71 270 3.0 4.0 0.00 0.00 0.00 52 1003.9
20260506133012 73 270 1.0 4.0 0.00 0.00 0.00 46 1003.6
20260506132010 73 90 1.0 3.0 0.00 0.00 0.00 44 1003.6
20260506131007 72 0 1.0 3.0 0.00 0.00 0.00 47 1003.8
20260506130012 72 270 2.0 4.0 0.00 0.00 0.00 47 1004.1
20260506125010 72 0 2.0 4.0 0.00 0.00 0.00 45 1004.3
20260506124009 71 0 3.0 4.0 0.00 0.00 0.00 52 1004.4
20260506123012 72 270 5.0 13.0 0.00 0.00 0.00 47 1004.5
20260506122009 74 90 3.0 6.0 0.00 0.00 0.00 46 1004.2
20260506121009 74 270 4.0 6.0 0.00 0.00 0.00 49 1004.5
20260506120012 73 0 6.0 10.0 0.00 0.00 0.00 49 1004.6
20260506115008 73 270 5.0 10.0 0.00 0.00 0.00 52 1004.6
20260506114010 74 270 4.0 9.0 0.00 0.00 0.00 47 1004.7
20260506113010 73 225 5.0 11.0 0.00 0.00 0.00 49 1004.8
20260506112008 74 270 4.0 9.0 0.00 0.00 0.00 47 1004.8
20260506110014 72 135 3.0 7.0 0.00 0.00 0.00 50 1005.1
20260506105009 72 270 4.0 8.0 0.00 0.00 0.00 52 1005.1
20260506104009 71 270 6.0 12.0 0.00 0.00 0.00 52 1005.5
20260506103011 73 180 4.0 7.0 0.00 0.00 0.00 48 1005.5
20260506102010 72 225 4.0 10.0 0.00 0.00 0.00 50 1005.6
20260506101008 71 270 6.0 12.0 0.00 0.00 0.00 53 1005.7
20260506095009 69 225 5.0 9.0 0.00 0.00 0.00 58 1005.7
20260506094008 67 0 5.0 8.0 0.00 0.00 0.00 60 1005.7
20260506093010 67 225 6.0 11.0 0.00 0.00 0.00 61 1005.7
20260506092008 68 270 6.0 12.0 0.00 0.00 0.00 58 1005.7
20260506091008 68 225 8.0 12.0 0.00 0.00 0.00 59 1005.6
20260506090012 69 225 5.0 10.0 0.00 0.00 0.00 55 1005.5
20260506085009 67 270 7.0 10.0 0.00 0.00 0.00 61 1005.7
20260506084008 68 225 5.0 9.0 0.00 0.00 0.00 62 1005.5
20260506083012 67 225 5.0 10.0 0.00 0.00 0.00 60 1005.6
20260506082009 65 270 7.0 11.0 0.00 0.00 0.00 65 1005.8
20260506081010 64 270 7.0 11.0 0.00 0.00 0.00 66 1005.9
20260506073010 64 270 5.0 8.0 0.00 0.00 0.00 70 1006.0
20260506072009 62 270 7.0 10.0 0.00 0.00 0.00 71 1006.1
20260506071006 62 270 5.0 8.0 0.00 0.00 0.00 71 1006.1
20260506062009 60 225 6.0 10.0 0.00 0.00 0.00 77 1006.2
20260506061006 60 270 5.0 8.0 0.00 0.00 0.00 79 1006.0
20260506051008 55 180 0.0 0.0 0.00 0.00 0.00 94 1006.0
20260506045009 54 180 0.0 1.0 0.00 0.00 0.00 95 1006.2
20260506044009 54 0 0.0 0.0 0.00 0.00 0.00 95 1006.1
20260506042008 53 180 0.0 0.0 0.00 0.00 0.00 95 1005.8
20260506041006 53 180 0.0 0.0 0.00 0.00 0.00 95 1005.6
20260506040013 53 180 0.0 1.0 0.00 0.00 0.00 95 1005.6
20260506035007 52 180 0.0 1.0 0.00 0.00 0.00 94 1005.5
20260506033010 53 270 0.0 2.0 0.00 0.00 0.00 93 1005.5
20260506032008 54 270 0.0 2.0 0.00 0.00 0.00 94 1005.5
20260506031008 54 270 2.0 3.0 0.00 0.00 0.00 94 1005.6